GW3588 Weather Reports


Display with metric or nautical units.
time (UTC)temp
F
wind
direction
speed
MPH
gust
MPH
rain 1hr
in
rain 24hr
in
rain mn
in
humidity
%
barometer
mb
20260507223236 57 246 11.0 15.0 0.00 0.00 0.00 48 1004.1
20260507222740 58 261 12.0 17.0 0.00 0.00 0.00 43 1004.0
20260507222236 58 261 11.0 17.0 0.00 0.00 0.00 43 1004.0
20260507221736 57 260 11.0 15.0 0.00 0.00 0.00 46
20260507221237 58 247 12.0 17.0 0.00 0.00 0.00 45
20260507220736 59 256 13.0 16.0 0.00 0.00 0.00 43 1003.9
20260507220236 60 274 10.0 15.0 0.00 0.00 0.00 39 1003.8
20260507215736 59 267 12.0 22.0 0.00 0.00 0.00 39 1003.8
20260507215236 59 266 12.0 17.0 0.00 0.00 0.00 43
20260507214736 60 266 11.0 17.0 0.00 0.00 0.00 41
20260507214236 59 265 13.0 18.0 0.00 0.00 0.00 40 1003.7
20260507213736 59 258 13.0 19.0 0.00 0.00 0.00 43
20260507213236 60 263 13.0 19.0 0.00 0.00 0.00 41 1003.7
20260507212736 60 270 12.0 18.0 0.00 0.00 0.00 42 1003.7
20260507212136 60 260 12.0 18.0 0.00 0.00 0.00 39 1003.7
20260507211636 59 252 15.0 21.0 0.00 0.00 0.00 45
20260507211136 59 256 12.0 17.0 0.00 0.00 0.00 45 1003.6
20260507210636 60 256 12.0 18.0 0.00 0.00 0.00 44 1003.8
20260507210136 60 247 13.0 16.0 0.00 0.00 0.00 43 1003.8
20260507205636 60 228 8.0 12.0 0.00 0.00 0.00 45 1003.8
20260507205136 60 242 9.0 13.0 0.00 0.00 0.00 45 1003.6
20260507204636 61 268 11.0 15.0 0.00 0.00 0.00 38 1003.7
20260507204135 61 271 9.0 17.0 0.00 0.00 0.00 37 1003.7
20260507203636 61 257 13.0 17.0 0.00 0.00 0.00 40 1003.6
20260507203136 61 253 13.0 16.0 0.00 0.00 0.00 38 1003.6
20260507202636 62 253 12.0 16.0 0.00 0.00 0.00 38 1003.6
20260507202136 62 261 12.0 17.0 0.00 0.00 0.00 37 1003.5
20260507201636 61 250 15.0 24.0 0.00 0.00 0.00 37 1003.6
20260507201136 61 256 15.0 20.0 0.00 0.00 0.00 42 1003.5
20260507200636 62 263 13.0 17.0 0.00 0.00 0.00 40
20260507200136 61 267 12.0 21.0 0.00 0.00 0.00 39 1003.7
20260507195636 61 262 15.0 20.0 0.00 0.00 0.00 40
20260507195136 62 262 15.0 21.0 0.00 0.00 0.00 39 1003.8
20260507194636 62 258 14.0 20.0 0.00 0.00 0.00 37 1003.6
20260507194136 62 261 14.0 20.0 0.00 0.00 0.00 37 1003.7
20260507193636 61 256 17.0 25.0 0.00 0.00 0.00 41
20260507193136 62 262 14.0 19.0 0.00 0.00 0.00 38 1003.8
20260507192636 62 267 15.0 22.0 0.00 0.00 0.00 38 1003.8
20260507192136 62 263 14.0 21.0 0.00 0.00 0.00 39
20260507191636 61 266 15.0 24.0 0.00 0.00 0.00 38 1003.9
20260507191135 62 275 12.0 18.0 0.00 0.00 0.00 41 1003.9
20260507190635 61 259 12.0 19.0 0.00 0.00 0.00 41 1004.0
20260507190036 61 250 16.0 21.0 0.00 0.00 0.00 41 1003.8
20260507185536 61 259 13.0 18.0 0.00 0.00 0.00 43 1004.0
20260507185035 61 229 11.0 17.0 0.00 0.00 0.00 45 1004.0
20260507184535 62 253 13.0 16.0 0.00 0.00 0.00 41
20260507184036 62 245 11.0 19.0 0.00 0.00 0.00 42 1004.1
20260507183537 62 231 9.0 15.0 0.00 0.00 0.00 49 1004.2
20260507183035 61 245 10.0 15.0 0.00 0.00 0.00 48 1004.1
20260507182535 61 239 9.0 16.0 0.00 0.00 0.00 49 1004.2
20260507182035 61 247 10.0 15.0 0.00 0.00 0.00 49
20260507181535 60 244 7.0 12.0 0.00 0.00 0.00 53 1004.4
20260507181036 58 131 9.0 12.0 0.00 0.00 0.00 59 1004.5
20260507180535 58 160 7.0 13.0 0.00 0.00 0.00 61 1004.6
20260507180035 58 147 7.0 14.0 0.00 0.00 0.00 62 1004.5
20260507175536 57 127 12.0 17.0 0.00 0.00 0.00 64 1004.4
20260507175035 59 126 12.0 18.0 0.00 0.00 0.00 61 1004.3
20260507174535 60 150 8.0 12.0 0.00 0.00 0.00 59 1004.4
20260507174035 63 155 6.0 11.0 0.00 0.00 0.00 54 1004.4
20260507173535 62 196 6.0 11.0 0.00 0.00 0.00 52
20260507173035 61 213 4.0 17.0 0.00 0.00 0.00 59
20260507172536 61 236 12.0 18.0 0.00 0.00 0.00 55 1004.5
20260507172035 62 224 8.0 14.0 0.00 0.00 0.00 57 1004.5
20260507171538 61 226 10.0 17.0 0.00 0.00 0.00 58 1004.6
20260507171035 59 224 12.0 17.0 0.00 0.00 0.00 61 1004.6
20260507170535 57 184 3.0 10.0 0.00 0.00 0.00 66 1004.8
20260507170035 58 161 8.0 11.0 0.00 0.00 0.00 65
20260507165535 58 163 6.0 11.0 0.00 0.00 0.00 64 1004.8
20260507165035 58 166 6.0 10.0 0.00 0.00 0.00 65 1004.9
20260507164535 58 127 7.0 10.0 0.00 0.00 0.00 64 1005.0
20260507164035 58 144 8.0 11.0 0.00 0.00 0.00 63
20260507163535 58 145 7.0 13.0 0.00 0.00 0.00 65 1005.0
20260507163035 57 137 9.0 12.0 0.00 0.00 0.00 67
20260507162535 57 134 8.0 11.0 0.00 0.00 0.00 66 1005.2
20260507162035 57 130 8.0 11.0 0.00 0.00 0.00 66 1005.1
20260507161536 57 130 8.0 12.0 0.00 0.00 0.00 66 1005.2
20260507161035 58 130 8.0 12.0 0.00 0.00 0.00 65 1005.3
20260507160435 56 121 8.0 12.0 0.00 0.00 0.00 68 1005.3
20260507155936 56 125 9.0 13.0 0.00 0.00 0.00 70 1005.3
20260507155435 55 112 7.0 10.0 0.00 0.00 0.00 69 1005.4
20260507154935 55 110 7.0 10.0 0.00 0.00 0.00 68 1005.5
20260507154435 54 120 7.0 11.0 0.00 0.00 0.00 70 1005.6
20260507153935 54 133 6.0 11.0 0.00 0.00 0.00 70 1005.7
20260507153435 53 136 8.0 12.0 0.00 0.00 0.00 70 1005.7
20260507152935 54 134 8.0 11.0 0.00 0.00 0.00 69
20260507152435 54 131 9.0 13.0 0.00 0.00 0.00 67
20260507151935 56 132 9.0 12.0 0.00 0.00 0.00 64 1005.8
20260507151435 57 147 8.0 12.0 0.00 0.00 0.00 65 1005.9
20260507150935 56 150 9.0 12.0 0.00 0.00 0.00 67 1006.0
20260507150434 56 148 8.0 11.0 0.00 0.00 0.00 67 1006.1
20260507145935 55 156 7.0 13.0 0.00 0.00 0.00 69 1006.0
20260507145435 55 143 8.0 10.0 0.00 0.00 0.00 68 1006.0
20260507144935 55 141 8.0 11.0 0.00 0.00 0.00 66 1006.0
20260507144435 55 159 8.0 11.0 0.00 0.00 0.00 68 1006.0
20260507143835 55 146 8.0 11.0 0.00 0.00 0.00 67 1006.0
20260507143335 56 144 6.0 9.0 0.00 0.00 0.00 69 1005.9
20260507142834 55 165 7.0 10.0 0.00 0.00 0.00 69 1006.0
20260507142335 55 130 5.0 9.0 0.00 0.00 0.00 68 1005.9
20260507141835 56 156 5.0 8.0 0.00 0.00 0.00 69 1005.9
20260507141335 55 127 5.0 8.0 0.00 0.00 0.00 70 1005.9
20260507140835 55 158 7.0 9.0 0.00 0.00 0.00 67 1006.0
20260507140335 56 202 5.0 7.0 0.00 0.00 0.00 68 1005.9
20260507135834 55 229 4.0 7.0 0.00 0.00 0.00 69 1006.0
20260507135335 55 238 6.0 8.0 0.00 0.00 0.00 68 1006.0
20260507134835 55 220 5.0 7.0 0.00 0.00 0.00 70 1006.1
20260507134334 54 235 6.0 9.0 0.00 0.00 0.00 72 1006.1
20260507133835 54 231 7.0 10.0 0.00 0.00 0.00 73 1006.2
20260507133334 53 231 8.0 11.0 0.00 0.00 0.00 74 1006.3
20260507132835 53 240 9.0 12.0 0.00 0.00 0.00 75 1006.3
20260507132334 53 237 10.0 13.0 0.00 0.00 0.00 76 1006.3
20260507131835 53 249 11.0 15.0 0.00 0.00 0.00 76
20260507131335 53 246 10.0 14.0 0.00 0.00 0.00 77 1006.3
20260507130834 52 248 11.0 16.0 0.00 0.00 0.00 78 1006.3
20260507130334 52 252 12.0 15.0 0.00 0.00 0.00 79 1006.4
20260507125834 52 246 11.0 15.0 0.00 0.00 0.00 80 1006.3
20260507125335 52 240 12.0 14.0 0.00 0.00 0.00 80 1006.3
20260507124834 52 242 7.0 11.0 0.00 0.00 0.00 80 1006.4
20260507124335 52 232 7.0 11.0 0.00 0.00 0.00 80 1006.4
20260507123834 52 236 8.0 11.0 0.00 0.00 0.00 81
20260507123334 52 233 5.0 8.0 0.00 0.00 0.00 82 1006.4
20260507122835 51 238 7.0 11.0 0.00 0.00 0.00 83 1006.6
20260507122334 51 246 7.0 10.0 0.00 0.00 0.00 84 1006.5
20260507121834 51 244 7.0 10.0 0.00 0.00 0.00 84 1006.6
20260507121334 51 238 7.0 9.0 0.00 0.00 0.00 85 1006.5
20260507120835 50 241 6.0 8.0 0.00 0.00 0.00 86 1006.5
20260507120334 49 248 6.0 8.0 0.00 0.00 0.00 86 1006.5
20260507115834 49 246 7.0 8.0 0.00 0.00 0.00 87 1006.7
20260507115334 49 250 6.0 8.0 0.00 0.00 0.00 87 1006.5
20260507114834 49 251 6.0 8.0 0.00 0.00 0.00 87
20260507114334 49 270 6.0 8.0 0.00 0.00 0.00 87
20260507113835 49 269 5.0 7.0 0.00 0.00 0.00 88 1006.3
20260507113335 48 283 5.0 7.0 0.00 0.00 0.00 87
20260507112834 48 289 4.0 5.0 0.00 0.00 0.00 88
20260507112334 48 297 5.0 6.0 0.00 0.00 0.00 87
20260507111835 48 289 5.0 5.0 0.00 0.00 0.00 87 1006.5
20260507111334 48 294 4.0 5.0 0.00 0.00 0.00 87 1006.6
20260507110834 48 297 4.0 7.0 0.00 0.00 0.00 87 1006.5
20260507110334 48 305 6.0 9.0 0.00 0.00 0.00 87 1006.4
20260507105834 48 298 7.0 10.0 0.00 0.00 0.00 87 1006.1
20260507105334 48 296 8.0 10.0 0.00 0.00 0.00 87 1006.1
20260507104834 48 289 9.0 11.0 0.00 0.00 0.00 87 1006.1
20260507104334 48 288 8.0 13.0 0.00 0.00 0.00 88 1005.9
20260507103834 48 289 8.0 11.0 0.00 0.00 0.00 88 1005.9
20260507103334 48 277 8.0 11.0 0.00 0.00 0.00 88 1006.3
20260507102834 48 278 9.0 12.0 0.00 0.00 0.00 88 1006.2
20260507102334 48 284 8.0 12.0 0.00 0.00 0.00 88 1006.0
20260507101834 48 280 7.0 10.0 0.00 0.00 0.00 88 1005.9
20260507101334 48 274 7.0 13.0 0.00 0.00 0.00 88 1005.9
20260507100834 48 261 10.0 12.0 0.00 0.00 0.00 88 1006.2
20260507100334 48 258 9.0 13.0 0.00 0.00 0.00 88 1006.1
20260507095834 48 263 8.0 12.0 0.00 0.00 0.00 88 1005.8
20260507095334 48 256 9.0 13.0 0.00 0.00 0.00 88 1006.0
20260507094834 48 252 11.0 13.0 0.00 0.00 0.00 88 1005.9
20260507094334 48 250 9.0 14.0 0.00 0.00 0.00 88 1005.8
20260507093834 48 255 11.0 16.0 0.00 0.00 0.00 88 1005.8
20260507093334 48 250 14.0 17.0 0.00 0.00 0.00 88 1006.0
20260507092834 48 253 13.0 15.0 0.00 0.00 0.00 88 1005.8
20260507092334 48 251 12.0 15.0 0.00 0.00 0.00 88
20260507091834 48 252 13.0 16.0 0.00 0.00 0.00 88 1005.7
20260507091334 48 251 13.0 16.0 0.00 0.00 0.00 88
20260507090834 48 260 10.0 14.0 0.00 0.00 0.00 88 1005.6
20260507090334 48 271 12.0 16.0 0.00 0.00 0.00 87 1005.3
20260507085834 48 273 11.0 17.0 0.00 0.00 0.00 87
20260507085334 49 267 11.0 16.0 0.00 0.00 0.00 87
20260507084833 49 261 11.0 18.0 0.00 0.00 0.00 87
20260507084334 49 272 12.0 17.0 0.00 0.00 0.00 87 1005.2
20260507083833 49 268 14.0 19.0 0.00 0.00 0.00 87
20260507083334 49 270 12.0 18.0 0.00 0.00 0.00 87 1005.2
20260507082834 49 266 12.0 16.0 0.00 0.00 0.00 87 1005.2
20260507082334 49 264 12.0 17.0 0.00 0.00 0.00 87 1005.3
20260507081834 49 260 14.0 20.0 0.00 0.00 0.00 87
20260507081334 49 263 12.0 18.0 0.00 0.00 0.00 87
20260507080834 50 258 15.0 24.0 0.00 0.00 0.00 87 1005.1
20260507080334 50 256 16.0 21.0 0.00 0.00 0.00 87
20260507075834 50 257 14.0 18.0 0.00 0.00 0.00 87
20260507075334 50 262 13.0 19.0 0.00 0.00 0.00 87 1005.0
20260507074833 50 262 12.0 21.0 0.00 0.00 0.00 88 1004.9
20260507074333 50 260 13.0 21.0 0.00 0.00 0.00 88 1004.9
20260507073834 50 260 13.0 20.0 0.00 0.00 0.00 88 1004.7
20260507073333 50 265 15.0 20.0 0.00 0.00 0.00 88 1004.7
20260507072833 50 257 14.0 23.0 0.00 0.00 0.00 88 1004.7
20260507072333 50 254 15.0 20.0 0.00 0.00 0.00 88 1004.9
20260507071833 50 251 13.0 19.0 0.00 0.00 0.00 88 1004.9
20260507071334 50 253 14.0 22.0 0.00 0.00 0.00 89 1004.7
20260507070833 50 251 16.0 21.0 0.00 0.00 0.00 89 1004.5
20260507070333 50 251 17.0 24.0 0.00 0.00 0.00 90 1004.5
20260507065833 50 255 18.0 24.0 0.00 0.00 0.00 90
20260507065333 50 249 16.0 24.0 0.00 0.00 0.00 90 1004.7
20260507064834 50 250 15.0 19.0 0.00 0.00 0.00 90
20260507064333 50 252 14.0 19.0 0.00 0.00 0.00 91
20260507063833 50 239 12.0 18.0 0.00 0.00 0.00 91 1004.3
20260507063333 50 240 13.0 18.0 0.00 0.00 0.00 91 1004.4
20260507062833 50 247 13.0 18.0 0.00 0.00 0.00 91 1004.3
20260507062333 50 251 14.0 19.0 0.00 0.00 0.00 92
20260507061833 50 248 12.0 18.0 0.00 0.00 0.00 92 1004.4
20260507061333 50 242 13.0 17.0 0.00 0.00 0.00 92
20260507060833 50 249 13.0 18.0 0.00 0.00 0.00 92 1004.4
20260507060333 50 254 16.0 21.0 0.00 0.00 0.00 93 1004.4
20260507055833 50 253 16.0 20.0 0.00 0.00 0.00 93 1004.5
20260507055333 50 244 14.0 17.0 0.00 0.00 0.00 93 1004.6
20260507054833 50 231 10.0 17.0 0.00 0.00 0.00 93
20260507054333 50 233 12.0 17.0 0.00 0.00 0.00 93
20260507053833 51 229 12.0 19.0 0.00 0.00 0.00 94
20260507053333 51 219 9.0 15.0 0.00 0.00 0.00 94 1004.8
20260507052833 51 220 7.0 15.0 0.00 0.00 0.00 94 1004.5
20260507052333 51 246 13.0 21.0 0.00 0.00 0.00 94 1004.6
20260507051833 51 246 16.0 25.0 0.00 0.00 0.00 95 1004.7
20260507051341 51 242 18.0 25.0 0.00 0.00 0.00 95
20260507050833 51 236 13.0 19.0 0.00 0.00 0.00 94 1004.7
20260507050333 51 240 12.0 17.0 0.00 0.00 0.00 94 1004.4
20260507045833 52 254 12.0 15.0 0.00 0.00 0.00 95 1004.2
20260507045333 52 244 13.0 16.0 0.00 0.00 0.00 95 1004.3
20260507044833 52 230 9.0 14.0 0.00 0.00 0.00 95 1004.4
20260507044333 52 231 9.0 14.0 0.00 0.00 0.00 95 1004.7
20260507043833 53 239 11.0 17.0 0.00 0.00 0.00 95 1004.7
20260507043333 53 238 13.0 18.0 0.00 0.00 0.00 95 1004.6
20260507042833 53 233 11.0 17.0 0.00 0.00 0.00 95 1004.6
20260507042333 53 226 11.0 16.0 0.00 0.00 0.00 95 1004.5
20260507041833 53 237 11.0 14.0 0.00 0.00 0.00 95
20260507041333 54 231 11.0 15.0 0.00 0.00 0.00 95 1004.5
20260507040833 54 225 9.0 15.0 0.00 0.00 0.00 94 1004.4
20260507040333 55 223 10.0 17.0 0.00 0.00 0.00 95 1004.3
20260507035833 54 214 9.0 14.0 0.00 0.00 0.00 95 1004.1
20260507035333 55 215 8.0 16.0 0.00 0.00 0.00 95
20260507034833 55 212 11.0 18.0 0.00 0.00 0.00 96 1004.2
20260507034333 53 199 11.0 17.0 0.00 0.00 0.00 96
20260507033833 52 173 8.0 13.0 0.00 0.00 0.00 95
20260507033333 53 168 9.0 14.0 0.00 0.00 0.00 95 1003.9
20260507032833 52 163 8.0 13.0 0.00 0.00 0.00 95
20260507032333 52 161 8.0 14.0 0.00 0.00 0.00 95 1003.8
20260507031833 52 160 9.0 15.0 0.00 0.00 0.00 95 1003.7
20260507031333 52 163 9.0 13.0 0.00 0.00 0.00 95 1003.7
20260507030833 53 157 9.0 16.0 0.00 0.00 0.00 94
20260507030333 54 154 10.0 17.0 0.00 0.00 0.00 95 1003.6
20260507025833 54 153 11.0 20.0 0.00 0.00 0.00 95
20260507025333 54 150 13.0 21.0 0.00 0.00 0.00 95 1003.7
20260507024833 54 149 11.0 19.0 0.00 0.00 0.00 95 1003.6
20260507024333 54 146 12.0 18.0 0.00 0.00 0.00 95 1003.7
20260507023833 54 156 11.0 18.0 0.00 0.00 0.00 95 1003.9
20260507023333 53 145 11.0 16.0 0.00 0.00 0.00 95
20260507022833 53 147 12.0 18.0 0.00 0.00 0.00 95 1003.7
20260507022333 54 142 11.0 17.0 0.00 0.00 0.00 95 1003.9
20260507021832 53 150 12.0 18.0 0.00 0.00 0.00 95 1003.7
20260507021332 53 151 13.0 20.0 0.00 0.00 0.00 95
20260507020833 52 154 11.0 19.0 0.00 0.00 0.00 95
20260507020332 52 155 11.0 18.0 0.00 0.00 0.00 95 1004.0
20260507015832 52 154 12.0 21.0 0.00 0.00 0.00 95 1004.0
20260507015332 52 156 12.0 19.0 0.00 0.00 0.00 95 1003.9
20260507014833 52 152 11.0 20.0 0.00 0.00 0.00 94 1004.0
20260507014333 53 155 13.0 20.0 0.00 0.00 0.00 95 1003.9
20260507013833 53 150 13.0 25.0 0.00 0.00 0.00 95 1004.1
20260507013332 53 154 13.0 20.0 0.00 0.00 0.00 94 1004.1
20260507012832 53 151 12.0 20.0 0.00 0.00 0.00 95
20260507012332 53 147 11.0 24.0 0.00 0.00 0.00 94 1004.2
20260507011832 53 151 13.0 26.0 0.00 0.00 0.00 94 1004.2
20260507011332 53 146 13.0 24.0 0.00 0.00 0.00 94 1004.2
20260507010833 53 143 14.0 24.0 0.00 0.00 0.00 94
20260507010333 53 143 15.0 22.0 0.00 0.00 0.00 94 1004.2
20260507005832 53 141 14.0 26.0 0.00 0.00 0.00 94 1004.2
20260507005332 53 142 15.0 27.0 0.00 0.00 0.00 94
20260507004832 53 148 16.0 26.0 0.00 0.00 0.00 94 1004.1
20260507004332 53 150 14.0 29.0 0.00 0.00 0.00 94 1004.2
20260507003832 53 149 16.0 29.0 0.00 0.00 0.00 94 1004.3
20260507003332 53 143 17.0 26.0 0.00 0.00 0.00 94 1004.2
20260507002832 53 143 17.0 26.0 0.00 0.00 0.00 94 1003.9
20260507002332 53 143 15.0 25.0 0.00 0.00 0.00 94 1004.1
20260507001832 53 141 17.0 28.0 0.00 0.00 0.00 94 1004.0
20260507001332 53 136 17.0 26.0 0.00 0.00 0.00 94 1004.0
20260507000832 53 140 16.0 25.0 0.00 0.00 0.00 94 1003.9
20260507000332 53 133 15.0 22.0 0.00 0.00 0.00 94
20260506235832 53 137 13.0 23.0 0.00 0.00 0.00 94 1004.0
20260506235332 53 136 13.0 21.0 0.00 0.00 0.00 94 1004.0
20260506234832 52 136 12.0 21.0 0.00 0.00 0.00 94 1004.1
20260506234332 52 129 14.0 24.0 0.00 0.00 0.00 94 1004.0
20260506233833 52 130 14.0 21.0 0.00 0.00 0.00 94 1004.1
20260506233332 52 126 13.0 19.0 0.00 0.00 0.00 93 1004.2
20260506232832 52 126 11.0 17.0 0.00 0.00 0.00 93 1004.3
20260506232332 53 127 12.0 19.0 0.00 0.00 0.00 93 1004.3
20260506231832 53 129 13.0 21.0 0.00 0.00 0.00 93 1004.3
20260506231332 53 133 12.0 21.0 0.00 0.00 0.00 93 1004.4
20260506230832 53 135 13.0 22.0 0.00 0.00 0.00 93 1004.4
20260506230332 54 134 15.0 24.0 0.00 0.00 0.00 93 1004.1
20260506225832 54 136 16.0 24.0 0.00 0.00 0.00 93 1004.3
20260506225332 53 137 13.0 21.0 0.00 0.00 0.00 93 1004.3
20260506224832 53 133 10.0 18.0 0.00 0.00 0.00 92 1004.4
20260506224332 53 128 9.0 17.0 0.00 0.00 0.00 92 1004.4
20260506223832 54 132 12.0 21.0 0.00 0.00 0.00 92 1004.4